User: anonymous
Location: Strohbehn Observatory
(42.4649°N, 93.8239°W)
Time: 16:02:00
(UTC-05:00)
Language:

SL-16 R/B - Orbit

View from above orbital plane
View from above orbital plane
View from above satellite
View from above satellite

Ground track
Ground track

The orbit data is extracted from the following two-line orbital elements,

1 31793U 07029B   14243.81299328 -.00000316  00000-0 -14017-3 0   525
2 31793 070.9786 012.3115 0002867 274.9615 194.0078 14.14282138370443
Epoch (UTC): 31 August 2014 19:30:42
Eccentricity: 0.0002867
inclination: 70.9786°
perigee height: 842 km
apogee height: 847 km
right ascension of ascending node: 12.3115°
argument of perigee: 274.9615°
revolutions per day: 14.14282138
mean anomaly at epoch: 194.0078°
orbit number at epoch: 37044

The dashed part of the orbit path shows where the satellite is in the earth's shadow,  

DLR